This is the latest recevied weather packets stored in our database for station/object KE4AMH. If no packets are shown the sender has not sent any weather packets the latest 10 day(s).
| Time | Temp. | Humidity | Pressure | Rain* | Wind** | Luminosity | Snow |
|---|---|---|---|---|---|---|---|
| 1777302160 | 15° C | 76% | 1023 hPa | 0 mm | - | 158 W/m² | - |
| 1777301857 | 15° C | 75% | 1022.8 hPa | 0 mm | - | 155 W/m² | - |
| 1777301554 | 15° C | 76% | 1022.9 hPa | 0 mm | - | 144 W/m² | - |
| 1777301251 | 15° C | 76% | 1023 hPa | 0 mm | - | 152 W/m² | - |
| 1777300948 | 15° C | 76% | 1022.7 hPa | 0 mm | - | 161 W/m² | - |
| 1777300646 | 15° C | 78% | 1022.6 hPa | 0 mm | - | 159 W/m² | - |
| 1777300343 | 15° C | 77% | 1022.8 hPa | 0 mm | - | 159 W/m² | - |
| 1777300041 | 15° C | 77% | 1022.7 hPa | 0 mm | - | 185 W/m² | - |
| 1777299737 | 14.44° C | 77% | 1022.5 hPa | 0 mm | - | 179 W/m² | - |
| 1777299434 | 14.44° C | 78% | 1022.8 hPa | 0 mm | - | 159 W/m² | - |
| 1777299132 | 15° C | 77% | 1022.8 hPa | 0 mm | - | 139 W/m² | - |
| 1777298829 | 14.44° C | 77% | 1022.7 hPa | 0 mm | - | 141 W/m² | - |
| 1777298525 | 14.44° C | 78% | 1022.7 hPa | 0 mm | - | 138 W/m² | - |
| 1777298222 | 13.89° C | 78% | 1022.5 hPa | 0 mm | - | 127 W/m² | - |
| 1777297917 | 13.89° C | 78% | 1022.7 hPa | 0 mm | - | 127 W/m² | - |
| 1777297615 | 14.44° C | 78% | 1022.7 hPa | 0 mm | - | 109 W/m² | - |
| 1777297311 | 13.89° C | 79% | 1022.6 hPa | 0 mm | - | 115 W/m² | - |
| 1777297009 | 13.89° C | 79% | 1022.7 hPa | 0 mm | - | 126 W/m² | - |
| 1777296704 | 13.89° C | 79% | 1022.6 hPa | 0 mm | - | 120 W/m² | - |
| 1777296390 | 13.89° C | 79% | 1022.5 hPa | 0 mm | - | 106 W/m² | - |
| 1777296086 | 13.89° C | 79% | 1022.3 hPa | 0 mm | - | 103 W/m² | - |
| 1777295783 | 13.33° C | 79% | 1022.4 hPa | 0 mm | - | 100 W/m² | - |
| 1777295481 | 13.89° C | 80% | 1022.3 hPa | 0 mm | - | 93 W/m² | - |
| 1777295178 | 13.89° C | 80% | 1022.3 hPa | 0 mm | - | 98 W/m² | - |
| 1777294876 | 13.33° C | 79% | 1022.2 hPa | 0 mm | - | 87 W/m² | - |
* Rain latest hour (hover to see other rain measurements)
** Current wind speed in m/s (hover to see current wind gust speed)